Zurück zum Katalog

COSMOS 1285 DEB

LostHEO
NORAD 27802·DEBRIS·🇷🇺 Russia

Gestartet Aug 4, 1981 von Plesetsk Cosmodrome

Loading…

Nächste Überflüge (nächste 24 Stunden)

TLE

VeraltetSource: Space-Track

Epoche: Aug 5, 2020, 06:15 UTC

1 27802U 81071R   20218.26047229 -.00000159  00000-0  10000-3 0  9991
2 27802  68.6939 228.9071 5557319  46.9738 347.9239  1.97602973166894

Verfolge COSMOS 1285 DEB in Echtzeit mit AllMySat

Download on the App Store